Location: Arclight Observatory
(36.5667°N, 87.3333°W)
Time: 16:17:27
(UTC-05:00)

ISS - Visible Passes

Search period start: 24 May 2015 00:00
Search period end: 03 June 2015 00:00
Orbit: 399 x 404 km, 51.6° (Epoch: 24 May)

Date Brightness Start Highest point End Pass type
(mag) Time Alt. Az. Time Alt. Az. Time Alt. Az.
24 May -0.2 02:29:12 12° NNW 02:29:12 12° NNW 02:30:16 10° N visible
25 May 0.3 01:37:37 11° NNE 01:37:37 11° NNE 01:37:48 10° NNE visible
27 May 0.1 04:40:26 10° N 04:41:18 11° NNE 04:42:15 10° NE visible
29 May -0.2 04:29:16 10° NNW 04:31:33 18° NNE 04:33:52 10° ENE visible
30 May 0.1 03:36:44 10° N 03:38:00 12° NNE 03:39:19 10° NE visible
30 May -3.5 21:48:53 10° SW 21:52:07 82° SE 21:55:22 10° NE visible
30 May -0.1 23:27:01 10° WNW 23:28:55 14° NNW 23:30:46 10° N visible
31 May -1.4 04:18:36 10° NNW 04:21:35 33° NE 04:24:35 10° E visible
31 May -2.8 20:55:55 10° SSW 20:58:53 35° SE 21:01:54 10° ENE visible
31 May -0.7 22:32:45 10° W 22:35:23 22° NNW 22:38:00 10° NNE visible
01 Jun -0.4 03:25:40 10° NNW 03:28:07 19° NNE 03:30:36 10° ENE visible
01 Jun -3.0 05:01:33 10° WNW 05:04:41 44° SW 05:07:48 10° SSE visible
01 Jun -1.8 21:38:51 10° WSW 21:41:55 39° NW 21:44:59 10° NE visible
02 Jun 0.2 02:32:58 10° N 02:34:32 13° NNE 02:36:09 10° NE visible
02 Jun -3.3 04:08:09 10° NW 04:11:25 80° NE 04:14:40 10° SE visible
02 Jun -3.3 20:45:19 10° SW 20:48:33 83° NW 20:51:48 10° NE visible
02 Jun 0.1 22:23:47 10° NW 22:25:25 13° NNW 22:27:00 10° N visible
